DAL1464 KSLC-KGPI

Flight info

Callsign DAL1464
Flight time 1h 20m
Altitude 34000
Route RUGGD3 HOLTR FCA
Aircraft B739/M-SDE2E3FGHIRWXY/LB1

Departure

Time 2026-04-24 04:06
Airport Salt Lake City International Airport (KSLC)

Arrival

Time 2026-04-24 05:27
Airport Glacier Park International Airport (KGPI)
Time Latitude Longitude Altitude Speed Heading
2026-04-24 03:19 40.78654 -111.98030 4230 ft 0 kts 175°
2026-04-24 03:48 40.78677 -111.98032 4229 ft 4 kts 179°
2026-04-24 03:49 40.78704 -111.98031 4229 ft 4 kts 187°
2026-04-24 03:49 40.78730 -111.98023 4229 ft 4 kts 203°
2026-04-24 03:49 40.78747 -111.98010 4230 ft 0 kts 220°
2026-04-24 03:52 40.78746 -111.98012 4230 ft 3 kts 220°
2026-04-24 03:52 40.78722 -111.98038 4229 ft 5 kts 220°
2026-04-24 03:52 40.78720 -111.98066 4230 ft 1 kts 317°
2026-04-24 03:52 40.78727 -111.98058 4230 ft 2 kts 51°
2026-04-24 03:53 40.78729 -111.98055 4228 ft 0 kts 51°
2026-04-24 03:55 40.78734 -111.98046 4230 ft 5 kts 57°
2026-04-24 03:56 40.78741 -111.97981 4228 ft 8 kts 85°
2026-04-24 03:56 40.78745 -111.97912 4230 ft 7 kts 85°
2026-04-24 03:56 40.78749 -111.97849 4230 ft 2 kts 85°
2026-04-24 03:56 40.78749 -111.97848 4230 ft 0 kts 84°
2026-04-24 04:01 40.78750 -111.97845 4230 ft 3 kts 84°
2026-04-24 04:01 40.78754 -111.97787 4230 ft 0 kts 85°
2026-04-24 04:01 40.78755 -111.97773 4230 ft 6 kts 85°
2026-04-24 04:02 40.78780 -111.97698 4229 ft 13 kts 32°
2026-04-24 04:02 40.78893 -111.97697 4230 ft 21 kts 355°
2026-04-24 04:02 40.79061 -111.97718 4230 ft 27 kts 354°
2026-04-24 04:02 40.79259 -111.97741 4230 ft 29 kts 355°
2026-04-24 04:03 40.79458 -111.97763 4230 ft 28 kts 355°
2026-04-24 04:03 40.79644 -111.97785 4229 ft 26 kts 355°
2026-04-24 04:03 40.79820 -111.97805 4230 ft 24 kts 355°
2026-04-24 04:03 40.79984 -111.97825 4230 ft 23 kts 354°
2026-04-24 04:04 40.80141 -111.97843 4230 ft 22 kts 355°
2026-04-24 04:04 40.80293 -111.97840 4230 ft 22 kts 13°
2026-04-24 04:04 40.80440 -111.97825 4230 ft 21 kts 355°
2026-04-24 04:04 40.80583 -111.97843 4229 ft 20 kts 354°
2026-04-24 04:05 40.80708 -111.97857 4230 ft 9 kts 359°
2026-04-24 04:05 40.80746 -111.97807 4229 ft 9 kts 87°
2026-04-24 04:05 40.80726 -111.97729 4228 ft 10 kts 115°
2026-04-24 04:05 40.80670 -111.97689 4228 ft 12 kts 175°
2026-04-24 04:06 40.80413 -111.97659 4232 ft 72 kts 175°
2026-04-24 04:06 40.79691 -111.97575 4228 ft 135 kts 174°
2026-04-24 04:06 40.78598 -111.97448 4434 ft 167 kts 175°
2026-04-24 04:06 40.77400 -111.97320 5065 ft 179 kts 178°
2026-04-24 04:07 40.76193 -111.97183 5914 ft 173 kts 175°
2026-04-24 04:07 40.74987 -111.97405 6464 ft 189 kts 207°
2026-04-24 04:07 40.74006 -111.98665 6814 ft 208 kts 243°
2026-04-24 04:07 40.73665 -112.00570 7232 ft 228 kts 271°
2026-04-24 04:08 40.74090 -112.02652 7752 ft 243 kts 298°
2026-04-24 04:08 40.75110 -112.04578 8092 ft 268 kts 305°
2026-04-24 04:08 40.76269 -112.06557 8925 ft 276 kts 307°
2026-04-24 04:08 40.77470 -112.08494 10232 ft 263 kts 308°
2026-04-24 04:09 40.78616 -112.10343 11351 ft 261 kts 307°
2026-04-24 04:09 40.79738 -112.12270 12046 ft 271 kts 307°
2026-04-24 04:09 40.81211 -112.13977 12309 ft 300 kts 331°
2026-04-24 04:09 40.83316 -112.14619 12748 ft 326 kts 356°
2026-04-24 04:10 40.85619 -112.13944 13117 ft 355 kts 21°
2026-04-24 04:10 40.87814 -112.12329 13844 ft 365 kts 26°
2026-04-24 04:10 40.89983 -112.10542 14556 ft 369 kts 27°
2026-04-24 04:11 40.94358 -112.06866 15921 ft 377 kts 27°
2026-04-24 04:11 40.96600 -112.05014 16586 ft 381 kts 26°
2026-04-24 04:11 40.98865 -112.03164 17228 ft 385 kts 26°
2026-04-24 04:11 41.01163 -112.01303 17854 ft 389 kts 26°
2026-04-24 04:12 41.03450 -111.99459 18450 ft 393 kts 25°
2026-04-24 04:12 41.05790 -111.97577 18991 ft 395 kts 25°
2026-04-24 04:12 41.08148 -111.95680 19537 ft 398 kts 25°
2026-04-24 04:12 41.10525 -111.93766 20080 ft 400 kts 25°
2026-04-24 04:13 41.12912 -111.91844 20586 ft 403 kts 25°
2026-04-24 04:13 41.15313 -111.89909 21085 ft 406 kts 25°
2026-04-24 04:13 41.17740 -111.87951 21567 ft 409 kts 25°
2026-04-24 04:13 41.20188 -111.85974 22022 ft 412 kts 25°
2026-04-24 04:14 41.22641 -111.83991 22463 ft 415 kts 25°
2026-04-24 04:14 41.25115 -111.81988 22899 ft 417 kts 25°
2026-04-24 04:14 41.27623 -111.79958 22968 ft 429 kts 25°
2026-04-24 04:14 41.30207 -111.77866 22980 ft 440 kts 25°
2026-04-24 04:15 41.32823 -111.75744 22989 ft 451 kts 26°
2026-04-24 04:15 41.35531 -111.73544 23128 ft 457 kts 26°
2026-04-24 04:15 41.38227 -111.71415 23955 ft 442 kts 22°
2026-04-24 04:15 41.40971 -111.69825 24827 ft 421 kts 12°
2026-04-24 04:16 41.43759 -111.68713 25342 ft 416 kts 10°
2026-04-24 04:16 41.46564 -111.67660 25555 ft 421 kts 10°
2026-04-24 04:16 41.49395 -111.66605 25781 ft 425 kts 10°
2026-04-24 04:16 41.52243 -111.65526 26110 ft 426 kts 10°
2026-04-24 04:17 41.55090 -111.64429 26442 ft 427 kts 11°
2026-04-24 04:17 41.57947 -111.63315 26725 ft 428 kts 11°
2026-04-24 04:17 41.60812 -111.62189 27002 ft 431 kts 11°
2026-04-24 04:17 41.63694 -111.61053 27275 ft 432 kts 11°
2026-04-24 04:18 41.66583 -111.59912 27565 ft 433 kts 11°
2026-04-24 04:18 41.69478 -111.58768 27838 ft 434 kts 11°
2026-04-24 04:18 41.72383 -111.57620 28078 ft 436 kts 11°
2026-04-24 04:18 41.75295 -111.56469 28329 ft 437 kts 11°
2026-04-24 04:19 41.78214 -111.55315 28579 ft 438 kts 11°
2026-04-24 04:19 41.81118 -111.54301 28827 ft 435 kts
2026-04-24 04:19 41.84091 -111.53576 29141 ft 433 kts
2026-04-24 04:19 41.87057 -111.52941 29519 ft 430 kts
2026-04-24 04:20 41.90013 -111.52327 29921 ft 428 kts
2026-04-24 04:20 41.92948 -111.51707 30207 ft 427 kts
2026-04-24 04:20 41.95889 -111.51068 30391 ft 428 kts
2026-04-24 04:20 41.98840 -111.50413 30533 ft 430 kts
2026-04-24 04:21 42.01792 -111.49748 30739 ft 430 kts
2026-04-24 04:21 42.04742 -111.49077 30952 ft 430 kts
2026-04-24 04:21 42.07691 -111.48404 31147 ft 430 kts
2026-04-24 04:21 42.10642 -111.47730 31365 ft 430 kts
2026-04-24 04:22 42.12594 -111.47284 31500 ft 430 kts
2026-04-24 04:22 42.16540 -111.46382 31743 ft 430 kts
2026-04-24 04:22 42.18502 -111.45934 31886 ft 430 kts
2026-04-24 04:22 42.21459 -111.45258 32079 ft 430 kts
2026-04-24 04:23 42.24412 -111.44582 32253 ft 431 kts
2026-04-24 04:23 42.27379 -111.44001 32411 ft 428 kts 358°
2026-04-24 04:23 42.30328 -111.44017 32628 ft 421 kts 350°
2026-04-24 04:23 42.33209 -111.44572 32813 ft 416 kts 342°
2026-04-24 04:24 42.35947 -111.45633 32963 ft 414 kts 339°
2026-04-24 04:24 42.38698 -111.46797 33130 ft 414 kts 338°
2026-04-24 04:24 42.41449 -111.47982 33308 ft 414 kts 338°
2026-04-24 04:24 42.44194 -111.49164 33494 ft 414 kts 338°
2026-04-24 04:25 42.46936 -111.50338 33651 ft 414 kts 338°
2026-04-24 04:25 42.49689 -111.51508 33781 ft 415 kts 338°
2026-04-24 04:25 42.52444 -111.52673 33929 ft 415 kts 338°
2026-04-24 04:25 42.55207 -111.53838 33959 ft 417 kts 338°
2026-04-24 04:26 42.60809 -111.56199 33969 ft 424 kts 338°
2026-04-24 04:26 42.66496 -111.58595 33972 ft 431 kts 338°
2026-04-24 04:27 42.72271 -111.61031 33973 ft 437 kts 338°
2026-04-24 04:27 42.78118 -111.63502 33972 ft 442 kts 338°
2026-04-24 04:28 42.84009 -111.65996 33972 ft 445 kts 338°
2026-04-24 04:28 42.89942 -111.68512 33970 ft 447 kts 338°
2026-04-24 04:29 42.95843 -111.71083 33977 ft 448 kts 338°
2026-04-24 04:29 43.01739 -111.73858 33989 ft 449 kts 337°
2026-04-24 04:30 43.07678 -111.76687 33998 ft 449 kts 337°
2026-04-24 04:30 43.13550 -111.79466 34007 ft 450 kts 337°
2026-04-24 04:31 43.19468 -111.82257 34013 ft 450 kts 337°
2026-04-24 04:31 43.25376 -111.85043 34026 ft 449 kts 337°
2026-04-24 04:32 43.31279 -111.87832 34033 ft 448 kts 337°
2026-04-24 04:32 43.37179 -111.90626 34013 ft 448 kts 337°
2026-04-24 04:33 43.43075 -111.93425 34019 ft 448 kts 338°
2026-04-24 04:33 43.48975 -111.96232 34007 ft 449 kts 337°
2026-04-24 04:34 43.54885 -111.99049 34015 ft 449 kts 338°
2026-04-24 04:34 43.60786 -112.01868 34013 ft 449 kts 338°
2026-04-24 04:35 43.66664 -112.04680 34018 ft 450 kts 338°
2026-04-24 04:35 43.72578 -112.07517 34010 ft 450 kts 338°
2026-04-24 04:36 43.78492 -112.10360 34007 ft 449 kts 338°
2026-04-24 04:36 43.84403 -112.13206 34000 ft 449 kts 338°
2026-04-24 04:37 43.90297 -112.16051 33995 ft 449 kts 338°
2026-04-24 04:37 43.96200 -112.18906 33983 ft 448 kts 338°
2026-04-24 04:38 44.02058 -112.21745 33977 ft 449 kts 338°
2026-04-24 04:38 44.07953 -112.24609 33983 ft 449 kts 338°
2026-04-24 04:39 44.13852 -112.27480 33983 ft 449 kts 338°
2026-04-24 04:39 44.19765 -112.30365 33988 ft 450 kts 338°
2026-04-24 04:40 44.25685 -112.33258 33997 ft 451 kts 338°
2026-04-24 04:40 44.31614 -112.36163 34006 ft 452 kts 338°
2026-04-24 04:41 44.37517 -112.39061 34013 ft 453 kts 339°
2026-04-24 04:41 44.43503 -112.42006 34031 ft 453 kts 339°
2026-04-24 04:42 44.49414 -112.44920 34031 ft 454 kts 339°
2026-04-24 04:42 44.55380 -112.47868 34036 ft 455 kts 339°
2026-04-24 04:43 44.61360 -112.50829 34039 ft 455 kts 339°
2026-04-24 04:43 44.67334 -112.53793 34044 ft 456 kts 339°
2026-04-24 04:44 44.70341 -112.55285 34203 ft 456 kts 336°
2026-04-24 04:44 44.73300 -112.56746 34144 ft 443 kts 335°
2026-04-24 04:44 44.76147 -112.58152 34077 ft 425 kts 335°
2026-04-24 04:44 44.78880 -112.59506 34038 ft 408 kts 335°
2026-04-24 04:45 44.84156 -112.62144 34057 ft 402 kts 334°
2026-04-24 04:45 44.89475 -112.64826 34057 ft 409 kts 335°
2026-04-24 04:46 44.94844 -112.67525 34043 ft 409 kts 335°
2026-04-24 04:46 45.00169 -112.70200 34029 ft 408 kts 335°
2026-04-24 04:47 45.05513 -112.72889 34032 ft 408 kts 335°
2026-04-24 04:47 45.10851 -112.75580 34022 ft 407 kts 334°
2026-04-24 04:48 45.16164 -112.78265 34019 ft 405 kts 334°
2026-04-24 04:48 45.21468 -112.80950 34016 ft 404 kts 335°
2026-04-24 04:49 45.26752 -112.83632 34022 ft 404 kts 335°
2026-04-24 04:49 45.32046 -112.86325 34026 ft 405 kts 335°
2026-04-24 04:50 45.37372 -112.89039 34024 ft 408 kts 335°
2026-04-24 04:50 45.41830 -112.91315 34033 ft 411 kts 335°
2026-04-24 04:51 45.48139 -112.94542 34050 ft 414 kts 335°
2026-04-24 04:51 45.53577 -112.97329 34042 ft 416 kts 335°
2026-04-24 04:52 45.59011 -113.00119 34062 ft 419 kts 335°
2026-04-24 04:52 45.64504 -113.02945 34067 ft 421 kts 335°
2026-04-24 04:53 45.70020 -113.05789 34058 ft 421 kts 336°
2026-04-24 04:53 45.75520 -113.08629 34065 ft 418 kts 336°
2026-04-24 04:54 45.80976 -113.11453 34066 ft 417 kts 336°
2026-04-24 04:54 45.86417 -113.14277 34067 ft 415 kts 336°
2026-04-24 04:55 45.91831 -113.17093 34077 ft 413 kts 336°
2026-04-24 04:55 45.97227 -113.19905 34076 ft 412 kts 336°
2026-04-24 04:56 46.02574 -113.22697 34080 ft 411 kts 336°
2026-04-24 04:56 46.07959 -113.25515 34093 ft 412 kts 336°
2026-04-24 04:57 46.13360 -113.28348 34088 ft 414 kts 336°
2026-04-24 04:57 46.18778 -113.31196 34087 ft 415 kts 336°
2026-04-24 04:58 46.24211 -113.34057 34094 ft 416 kts 336°
2026-04-24 04:58 46.29665 -113.36934 34078 ft 417 kts 336°
2026-04-24 04:59 46.35132 -113.39825 34083 ft 418 kts 336°
2026-04-24 04:59 46.40556 -113.42699 34084 ft 418 kts 336°
2026-04-24 05:00 46.46011 -113.45596 34090 ft 418 kts 336°
2026-04-24 05:00 46.51478 -113.48505 34094 ft 418 kts 337°
2026-04-24 05:01 46.56939 -113.51417 34095 ft 418 kts 337°
2026-04-24 05:01 46.62394 -113.54333 34106 ft 417 kts 337°
2026-04-24 05:02 46.67837 -113.57249 34094 ft 416 kts 337°
2026-04-24 05:02 46.72350 -113.59670 34095 ft 416 kts 337°
2026-04-24 05:03 46.78695 -113.63084 34091 ft 415 kts 337°
2026-04-24 05:03 46.84105 -113.66000 34097 ft 415 kts 337°
2026-04-24 05:04 46.89516 -113.68923 34101 ft 415 kts 337°
2026-04-24 05:04 46.94934 -113.71856 34087 ft 413 kts 337°
2026-04-24 05:05 47.00278 -113.74755 34094 ft 412 kts 337°
2026-04-24 05:05 47.05719 -113.77718 33928 ft 425 kts 337°
2026-04-24 05:06 47.08534 -113.79254 33502 ft 438 kts 337°
2026-04-24 05:06 47.11412 -113.80826 32967 ft 441 kts 337°
2026-04-24 05:06 47.14235 -113.82364 32433 ft 436 kts 337°
2026-04-24 05:06 47.17058 -113.83903 31910 ft 429 kts 337°
2026-04-24 05:07 47.19840 -113.85422 31411 ft 423 kts 337°
2026-04-24 05:07 47.22576 -113.86918 30928 ft 417 kts 337°
2026-04-24 05:07 47.25279 -113.88398 30431 ft 411 kts 337°
2026-04-24 05:07 47.27937 -113.89858 29885 ft 405 kts 337°
2026-04-24 05:08 47.30558 -113.91299 29383 ft 397 kts 336°
2026-04-24 05:08 47.33132 -113.92714 28870 ft 392 kts 337°
2026-04-24 05:08 47.35675 -113.94114 28378 ft 387 kts 337°
2026-04-24 05:08 47.38179 -113.95495 27930 ft 382 kts 336°
2026-04-24 05:09 47.40662 -113.96866 27445 ft 381 kts 336°
2026-04-24 05:09 47.43149 -113.98243 26985 ft 384 kts 336°
2026-04-24 05:09 47.45660 -113.99633 26509 ft 386 kts 336°
2026-04-24 05:09 47.48172 -114.01024 26030 ft 384 kts 336°
2026-04-24 05:10 47.50663 -114.02404 25568 ft 381 kts 336°
2026-04-24 05:10 47.52309 -114.03316 25261 ft 380 kts 336°
2026-04-24 05:10 47.55573 -114.05128 24661 ft 377 kts 336°
2026-04-24 05:10 47.57230 -114.06048 24361 ft 376 kts 336°
2026-04-24 05:11 47.60477 -114.07855 23756 ft 375 kts 336°
2026-04-24 05:11 47.62121 -114.08771 23389 ft 374 kts 336°
2026-04-24 05:11 47.64512 -114.10103 22877 ft 370 kts 336°
2026-04-24 05:11 47.66932 -114.11453 22436 ft 364 kts 336°
2026-04-24 05:12 47.69267 -114.12756 21990 ft 360 kts 337°
2026-04-24 05:12 47.71582 -114.14049 21785 ft 351 kts 336°
2026-04-24 05:12 47.73873 -114.15371 21294 ft 355 kts 336°
2026-04-24 05:12 47.76164 -114.16728 20866 ft 354 kts 336°
2026-04-24 05:13 47.80753 -114.19470 20019 ft 355 kts 336°
2026-04-24 05:13 47.83045 -114.20840 19594 ft 354 kts 336°
2026-04-24 05:13 47.85326 -114.22200 19178 ft 353 kts 336°
2026-04-24 05:14 47.87606 -114.23560 18760 ft 352 kts 337°
2026-04-24 05:14 47.89880 -114.24915 18320 ft 351 kts 337°
2026-04-24 05:14 47.92147 -114.26268 17853 ft 350 kts 337°
2026-04-24 05:14 47.94399 -114.27612 17439 ft 347 kts 337°
2026-04-24 05:15 47.96632 -114.28947 17013 ft 345 kts 337°
2026-04-24 05:15 47.98857 -114.30278 16608 ft 342 kts 338°
2026-04-24 05:15 48.01050 -114.31590 16126 ft 339 kts 338°
2026-04-24 05:15 48.03227 -114.32895 15695 ft 334 kts 338°
2026-04-24 05:16 48.05373 -114.34182 15289 ft 330 kts 338°
2026-04-24 05:16 48.07486 -114.35451 14890 ft 325 kts 338°
2026-04-24 05:16 48.09550 -114.36691 14496 ft 323 kts 339°
2026-04-24 05:16 48.11626 -114.37939 14118 ft 320 kts 339°
2026-04-24 05:17 48.13682 -114.39177 13702 ft 317 kts 339°
2026-04-24 05:17 48.15712 -114.40399 13314 ft 312 kts 339°
2026-04-24 05:17 48.17715 -114.41607 12929 ft 308 kts 339°
2026-04-24 05:17 48.19692 -114.42800 12526 ft 305 kts 339°
2026-04-24 05:18 48.21642 -114.43978 12165 ft 300 kts 339°
2026-04-24 05:18 48.23570 -114.45142 11797 ft 297 kts 340°
2026-04-24 05:18 48.25485 -114.46301 11431 ft 295 kts 340°
2026-04-24 05:18 48.27375 -114.47445 11080 ft 292 kts 340°
2026-04-24 05:19 48.29254 -114.48582 10720 ft 290 kts 340°
2026-04-24 05:19 48.31113 -114.49710 10379 ft 287 kts 340°
2026-04-24 05:19 48.32938 -114.50818 10231 ft 278 kts 340°
2026-04-24 05:19 48.34737 -114.51654 10081 ft 265 kts 357°
2026-04-24 05:20 48.36514 -114.51321 9861 ft 256 kts 20°
2026-04-24 05:20 48.38065 -114.50051 9592 ft 250 kts 37°
2026-04-24 05:20 48.39312 -114.48131 8970 ft 260 kts 50°
2026-04-24 05:20 48.40434 -114.45972 8621 ft 258 kts 51°
2026-04-24 05:21 48.41465 -114.43883 8521 ft 239 kts 57°
2026-04-24 05:21 48.42139 -114.41734 8380 ft 221 kts 66°
2026-04-24 05:21 48.42673 -114.39665 8236 ft 203 kts 67°
2026-04-24 05:21 48.43173 -114.37727 7911 ft 196 kts 66°
2026-04-24 05:22 48.43676 -114.35811 7442 ft 196 kts 67°
2026-04-24 05:22 48.44099 -114.33856 6963 ft 197 kts 75°
2026-04-24 05:22 48.44336 -114.31850 6664 ft 194 kts 83°
2026-04-24 05:22 48.44380 -114.29819 6412 ft 194 kts 90°
2026-04-24 05:23 48.44232 -114.27794 6172 ft 196 kts 100°
2026-04-24 05:23 48.43854 -114.25821 5941 ft 197 kts 109°
2026-04-24 05:23 48.43273 -114.23992 5711 ft 190 kts 119°
2026-04-24 05:23 48.42600 -114.22319 5444 ft 183 kts 119°
2026-04-24 05:24 48.41902 -114.20784 5162 ft 175 kts 129°
2026-04-24 05:24 48.40998 -114.19580 4824 ft 169 kts 148°
2026-04-24 05:24 48.39915 -114.18845 4694 ft 171 kts 165°
2026-04-24 05:24 48.38770 -114.18632 4504 ft 163 kts 182°
2026-04-24 05:25 48.37703 -114.18915 4372 ft 156 kts 198°
2026-04-24 05:25 48.36741 -114.19674 4190 ft 157 kts 213°
2026-04-24 05:25 48.35818 -114.20574 3981 ft 158 kts 214°
2026-04-24 05:25 48.34916 -114.21505 3813 ft 157 kts 215°
2026-04-24 05:26 48.34019 -114.22443 3583 ft 156 kts 215°
2026-04-24 05:26 48.33138 -114.23354 3346 ft 151 kts 216°
2026-04-24 05:26 48.32283 -114.24256 3101 ft 149 kts 217°
2026-04-24 05:26 48.31449 -114.25123 2978 ft 136 kts 216°
2026-04-24 05:27 48.30775 -114.25830 2975 ft 97 kts 215°
2026-04-24 05:27 48.30341 -114.26282 2979 ft 54 kts 215°
2026-04-24 05:27 48.30157 -114.26475 2976 ft 15 kts 213°
2026-04-24 05:27 48.30091 -114.26463 2977 ft 10 kts 142°
2026-04-24 05:28 48.30073 -114.26374 2978 ft 11 kts 68°
2026-04-24 05:28 48.30141 -114.26286 2977 ft 14 kts 34°
2026-04-24 05:28 48.30220 -114.26204 2977 ft 14 kts 34°
2026-04-24 05:28 48.30296 -114.26126 2977 ft 13 kts 34°
2026-04-24 05:29 48.30370 -114.26050 2977 ft 13 kts 36°
2026-04-24 05:29 48.30477 -114.25935 2977 ft 28 kts 35°
2026-04-24 05:29 48.30641 -114.25766 2977 ft 28 kts 34°
2026-04-24 05:29 48.30782 -114.25619 2977 ft 15 kts 34°
2026-04-24 05:30 48.30803 -114.25597 2977 ft 0 kts 35°
2026-04-24 05:30 48.30804 -114.25596 2977 ft 0 kts 35°
2026-04-24 05:31 48.30819 -114.25572 2977 ft 7 kts 62°
2026-04-24 05:31 48.30804 -114.25502 2977 ft 7 kts 126°
2026-04-24 05:31 48.30798 -114.25433 2977 ft 7 kts 93°
2026-04-24 05:31 48.30783 -114.25393 2977 ft 3 kts 126°
2026-04-24 05:32 48.30779 -114.25384 2977 ft 0 kts 125°